KC5TIL-3 Weather Reports


time (UTC)temp
C
wind
direction
speed
KPH
gust
KPH
rain 1hr
cm
rain 24hr
cm
rain mn
cm
humidity
%
barometer
mb
20260509211758 31 5 9.7 6.4 0.00 0.00 0.00 15 1005.8
20260509211257 31 291 0.0 8.0 0.00 0.00 0.00 15 1005.8
20260509210744 31 4 4.8 11.3 0.00 0.00 0.00 13 1006.8
20260509210246 31 351 4.8 11.3 0.00 0.00 0.00 13 1006.8
20260509205745 31 15 8.0 11.3 0.00 0.00 0.00 13 1006.8
20260509204749 32 307 4.8 6.4 0.00 0.00 0.00 12 1006.8
20260509204247 32 307 0.0 8.0 0.00 0.00 0.00 12 1006.8
20260509203749 32 308 0.0 8.0 0.00 0.00 0.00 12 1006.8
20260509203251 31 312 4.8 6.4 0.00 0.00 0.00 12 1006.8
20260509202750 31 303 6.4 11.3 0.00 0.00 0.00 13 1006.8
20260509201248 31 0 6.4 8.0 0.00 0.00 0.00 13 1006.8
20260509200749 31 8 6.4 9.7 0.00 0.00 0.00 15 1006.8
20260509200252 31 69 6.4 14.5 0.00 0.00 0.00 15 1006.8
20260509195750 30 134 11.3 11.3 0.00 0.00 0.00 15 1006.8
20260509194252 30 309 0.0 6.4 0.00 0.00 0.00 15 1007.8
20260509192755 30 17 9.7 11.3 0.00 0.00 0.00 18 1007.8
20260509191759 31 138 6.4 8.0 0.00 0.00 0.00 18 1007.8
20260509191257 30 6 6.4 11.3 0.00 0.00 0.00 18 1007.8
20260509190256 30 33 6.4 9.7 0.00 0.00 0.00 19 1007.8
20260509185750 30 40 6.4 11.3 0.00 0.00 0.00 18 1007.8
20260509185252 30 262 8.0 11.3 0.00 0.00 0.00 19 1007.8
20260509184753 30 119 4.8 11.3 0.00 0.00 0.00 19 1007.8
20260509184253 30 55 6.4 14.5 0.00 0.00 0.00 19 1007.8
20260509183256 30 316 6.4 14.5 0.00 0.00 0.00 19 1007.8
20260509182751 30 169 4.8 16.1 0.00 0.00 0.00 19 1007.8
20260509182252 29 286 6.4 11.3 0.00 0.00 0.00 19 1007.8
20260509181753 28 26 6.4 9.7 0.00 0.00 0.00 20 1007.8
20260509180256 27 17 8.0 14.5 0.00 0.00 0.00 21 1007.8
20260509175745 28 17 6.4 11.3 0.00 0.00 0.00 20 1007.8
20260509174749 29 13 0.0 6.4 0.00 0.00 0.00 20 1007.8
20260509174247 28 8 0.0 11.3 0.00 0.00 0.00 21 1007.8
20260509173251 27 22 9.7 11.3 0.00 0.00 0.00 21 1008.8
20260509172740 28 328 6.4 12.9 0.00 0.00 0.00 22 1008.8
20260509171739 27 15 6.4 11.3 0.00 0.00 0.00 22 1008.8
20260509170241 27 321 8.0 11.3 0.00 0.00 0.00 21 1008.8
20260509165242 27 332 4.8 12.9 0.00 0.00 0.00 25 1008.8
20260509164744 27 330 6.4 11.3 0.00 0.00 0.00 25 1008.8
20260509164228 26 1 8.0 11.3 0.00 0.00 0.00 28 1008.8
20260509163222 26 286 6.4 9.7 0.00 0.00 0.00 30 1008.8
20260509162720 26 296 6.4 9.7 0.00 0.00 0.00 28 1008.8
20260509161720 26 332 4.8 11.3 0.00 0.00 0.00 28 1008.8
20260509160714 26 325 0.0 9.7 0.00 0.00 0.00 30 1008.8
20260509160216 25 273 6.4 9.7 0.00 0.00 0.00 29 1008.8
20260509154718 25 340 6.4 14.5 0.00 0.00 0.00 30 1008.8
20260509153719 25 27 8.0 11.3 0.00 0.00 0.00 31 1008.8
20260509153220 24 13 8.0 14.5 0.00 0.00 0.00 33 1008.8
20260509152221 23 36 11.3 16.1 0.00 0.00 0.00 35 1008.8
20260509151718 24 342 9.7 16.1 0.00 0.00 0.00 36 1008.8
20260509150718 23 351 8.0 14.5 0.00 0.00 0.00 34 1008.8
20260509145719 23 27 11.3 12.9 0.00 0.00 0.00 35 1008.8
20260509145221 23 282 4.8 11.3 0.00 0.00 0.00 36 1008.8
20260509144722 23 9 6.4 16.1 0.00 0.00 0.00 35 1008.8
20260509143723 23 294 8.0 14.5 0.00 0.00 0.00 39 1008.8
20260509143225 23 356 9.7 12.9 0.00 0.00 0.00 41 1008.8
20260509142723 23 309 6.4 11.3 0.00 0.00 0.00 42 1008.8
20260509142225 23 320 6.4 9.7 0.00 0.00 0.00 45 1008.8
20260509141727 22 293 4.8 11.3 0.00 0.00 0.00 47 1008.8
20260509140718 22 291 6.4 9.7 0.00 0.00 0.00 48 1008.8
20260509135718 22 12 6.4 9.7 0.00 0.00 0.00 49 1008.8
20260509135219 22 250 6.4 11.3 0.00 0.00 0.00 51 1008.8
20260509134210 22 351 6.4 14.5 0.00 0.00 0.00 51 1008.8
20260509133712 21 295 6.4 11.3 0.00 0.00 0.00 50 1008.8
20260509133214 22 292 4.8 9.7 0.00 0.00 0.00 51 1008.8
20260509132713 21 330 4.8 8.0 0.00 0.00 0.00 51 1008.8
20260509132215 21 308 4.8 11.3 0.00 0.00 0.00 52 1008.8
20260509131717 21 337 8.0 14.5 0.00 0.00 0.00 53 1008.8
20260509131215 21 69 9.7 11.3 0.00 0.00 0.00 53 1008.8
20260509130712 21 279 6.4 12.9 0.00 0.00 0.00 53 1008.8
20260509130214 21 305 4.8 12.9 0.00 0.00 0.00 53 1008.8
20260509125713 21 314 4.8 16.1 0.00 0.00 0.00 53 1008.8
20260509124702 21 293 8.0 11.3 0.00 0.00 0.00 51 1008.8
20260509124201 21 351 6.4 12.9 0.00 0.00 0.00 51 1008.8
20260509123703 21 289 8.0 9.7 0.00 0.00 0.00 51 1008.8
20260509123205 21 314 4.8 6.4 0.00 0.00 0.00 51 1008.8
20260509122703 21 246 0.0 9.7 0.00 0.00 0.00 53 1008.8
20260509121206 20 320 6.4 6.4 0.00 0.00 0.00 54 1007.8
20260509120708 20 351 0.0 6.4 0.00 0.00 0.00 54 1007.8
20260509120209 20 347 0.0 11.3 0.00 0.00 0.00 53 1007.8
20260509115708 20 356 4.8 11.3 0.00 0.00 0.00 53 1007.8
20260509114712 20 337 6.4 11.3 0.00 0.00 0.00 52 1007.8
20260509114210 20 329 4.8 8.0 0.00 0.00 0.00 53 1007.8
20260509113713 20 306 4.8 6.4 0.00 0.00 0.00 53 1007.8
20260509113214 20 305 0.0 0.0 0.00 0.00 0.00 52 1007.8
20260509112713 20 306 0.0 0.0 0.00 0.00 0.00 51 1007.8
20260509112215 20 306 0.0 6.4 0.00 0.00 0.00 50 1007.8
20260509111717 20 306 0.0 8.0 0.00 0.00 0.00 50 1007.8
20260509111215 20 305 4.8 9.7 0.00 0.00 0.00 50 1007.8
20260509110717 20 304 4.8 11.3 0.00 0.00 0.00 49 1007.8
20260509110219 20 330 6.4 11.3 0.00 0.00 0.00 50 1007.8
20260509105718 20 268 4.8 9.7 0.00 0.00 0.00 51 1007.8
20260509104721 21 301 8.0 12.9 0.00 0.00 0.00 53 1007.8
20260509103722 21 286 6.4 6.4 0.00 0.00 0.00 55 1006.8
20260509103219 21 302 4.8 8.0 0.00 0.00 0.00 56 1006.8
20260509102718 21 303 4.8 6.4 0.00 0.00 0.00 60 1006.8
20260509102219 21 305 4.8 6.4 0.00 0.00 0.00 60 1007.8
20260509101721 21 307 4.8 9.7 0.00 0.00 0.00 60 1007.8
20260509100717 21 298 4.8 11.3 0.00 0.00 0.00 61 1006.8
20260509095718 21 329 9.7 14.5 0.00 0.00 0.00 64 1006.8
20260509095220 22 9 11.3 17.7 0.00 0.00 0.00 66 1006.8
20260509094722 22 3 11.3 20.9 0.00 0.00 0.00 68 1006.8
20260509094221 22 49 16.1 17.7 0.00 0.00 0.00 67 1006.8
20260509093722 22 283 11.3 20.9 0.00 0.00 0.00 67 1003.8
20260509093224 22 216 12.9 12.9 0.00 0.00 0.00 67 1003.8
20260509092723 22 127 8.0 14.5 0.00 0.00 0.00 67 1003.8
20260509092224 22 155 6.4 20.9 0.00 0.00 0.00 66 1004.8
20260509091726 22 166 11.3 17.7 0.00 0.00 0.00 66 1004.8
20260509090722 22 228 9.7 16.1 0.00 0.00 0.00 66 1004.8
20260509085723 22 203 11.3 20.9 0.00 0.00 0.00 66 1004.8
20260509085225 22 176 12.9 22.5 0.00 0.00 0.00 67 1004.8
20260509084727 22 186 11.3 17.7 0.00 0.00 0.00 66 1004.8
20260509083727 22 223 11.3 17.7 0.00 0.00 0.00 69 1005.8
20260509083229 22 154 11.3 16.1 0.00 0.00 0.00 70 1005.8
20260509082728 22 182 11.3 19.3 0.00 0.00 0.00 69 1005.8
20260509082229 22 195 14.5 17.7 0.00 0.00 0.00 69 1005.8
20260509081731 22 213 11.3 16.1 0.00 0.00 0.00 70 1005.8
20260509081230 22 213 9.7 14.5 0.00 0.00 0.00 71 1005.8
20260509080732 22 187 9.7 14.5 0.00 0.00 0.00 71 1006.8
20260509080234 22 227 8.0 16.1 0.00 0.00 0.00 70 1006.8
20260509075732 22 125 9.7 12.9 0.00 0.00 0.00 69 1006.8
20260509075234 22 144 8.0 12.9 0.00 0.00 0.00 69 1007.8
20260509074224 22 154 8.0 9.7 0.00 0.00 0.00 70 1007.8
20260509073726 22 145 6.4 12.9 0.00 0.00 0.00 70 1008.8
20260509073228 22 193 8.0 14.5 0.00 0.00 0.00 70 1008.8
20260509072727 22 223 11.3 14.5 0.00 0.00 0.00 70 1008.8
20260509072228 22 207 9.7 14.5 0.00 0.00 0.00 71 1008.8
20260509071730 22 223 9.7 12.9 0.00 0.00 0.00 73 1008.8
20260509071229 22 253 6.4 11.3 0.00 0.00 0.00 75 1008.8
20260509070731 22 249 6.4 19.3 0.00 0.00 0.00 76 1009.8
20260509070228 22 258 16.1 16.1 0.00 0.00 0.00 76 1009.8
20260509065727 22 302 11.3 12.9 0.00 0.00 0.00 76 1009.8
20260509064731 22 300 9.7 11.3 0.00 0.00 0.00 76 1009.8
20260509064229 22 272 8.0 9.7 0.00 0.00 0.00 76 1009.8
20260509063233 22 286 6.4 9.7 0.00 0.00 0.00 77 1009.8
20260509061735 22 344 4.8 6.4 0.00 0.00 0.00 77 1008.8
20260509060737 22 7 4.8 6.4 0.00 0.00 0.00 77 1008.8
20260509060238 22 7 0.0 6.4 0.00 0.00 0.00 77 1008.8
20260509055736 22 7 4.8 11.3 0.00 0.00 0.00 77 1008.8
20260509054740 22 18 9.7 12.9 0.00 0.00 0.00 76 1008.8
20260509053243 22 338 6.4 6.4 0.00 0.00 0.00 74 1008.8
20260509052742 22 139 4.8 0.0 0.00 0.00 0.00 74 1008.8
20260509052244 22 147 0.0 4.8 0.00 0.00 0.00 74 1007.8
20260509051244 22 147 4.8 8.0 0.00 0.00 0.00 73 1007.8
20260509050746 22 170 0.0 6.4 0.00 0.00 0.00 72 1007.8
20260509050247 22 185 4.8 8.0 0.00 0.00 0.00 72 1007.8
20260509044750 22 113 6.4 8.0 0.00 0.00 0.00 70 1007.8
20260509043751 22 127 6.4 9.7 0.00 0.00 0.00 70 1007.8
20260509043252 22 129 8.0 9.7 0.00 0.00 0.00 69 1007.8
20260509042253 22 128 6.4 9.7 0.00 0.00 0.00 69 1008.8
20260509041755 22 124 6.4 8.0 0.00 0.00 0.00 68 1008.8
20260509040755 22 125 0.0 9.7 0.00 0.00 0.00 67 1007.8
20260509040257 22 124 8.0 8.0 0.00 0.00 0.00 67 1007.8
20260509035756 22 125 6.4 11.3 0.00 0.00 0.00 66 1007.8
20260509035257 22 127 6.4 11.3 0.00 0.00 0.00 66 1007.8
20260509034759 22 137 8.0 12.9 0.00 0.00 0.00 66 1007.8
20260509034259 22 218 0.0 14.5 0.00 0.00 0.00 66 1007.8
20260509033800 22 172 6.4 14.5 0.00 0.00 0.00 65 1007.8
20260509033303 22 212 9.7 12.9 0.00 0.00 0.00 65 1007.8
20260509032756 22 137 4.8 12.9 0.00 0.00 0.00 65 1007.8
20260509032257 22 199 6.4 11.3 0.00 0.00 0.00 64 1006.8
20260509031754 22 148 6.4 11.3 0.00 0.00 0.00 64 1006.8
20260509031253 22 188 6.4 12.9 0.00 0.00 0.00 64 1006.8
20260509030755 22 186 8.0 12.9 0.00 0.00 0.00 63 1006.8
20260509030257 22 132 9.7 16.1 0.00 0.00 0.00 63 1006.8
20260509025756 22 158 9.7 12.9 0.00 0.00 0.00 63 1006.8
20260509025253 22 139 8.0 17.7 0.00 0.00 0.00 62 1006.8
20260509024754 22 129 11.3 16.1 0.00 0.00 0.00 62 1006.8
20260509024254 22 134 11.3 14.5 0.00 0.00 0.00 61 1006.8
20260509023247 23 138 9.7 16.1 0.00 0.00 0.00 60 1006.8
20260509022747 23 157 11.3 12.9 0.00 0.00 0.00 60 1006.8
20260509022248 23 134 9.7 12.9 0.00 0.00 0.00 60 1006.8
20260509021750 23 200 6.4 14.5 0.00 0.00 0.00 59 1006.8
20260509021249 23 143 8.0 12.9 0.00 0.00 0.00 59 1006.8
20260509020750 23 121 11.3 11.3 0.00 0.00 0.00 59 1006.8
20260509020248 23 121 0.0 12.9 0.00 0.00 0.00 58 1006.8
20260509015747 23 117 8.0 11.3 0.00 0.00 0.00 58 1006.8
20260509015249 23 116 8.0 11.3 0.00 0.00 0.00 57 1006.8
20260509014750 23 119 9.7 9.7 0.00 0.00 0.00 56 1006.8
20260509014249 23 124 8.0 8.0 0.00 0.00 0.00 56 1006.8
20260509013750 23 126 6.4 11.3 0.00 0.00 0.00 55 1006.8
20260509013253 23 118 8.0 11.3 0.00 0.00 0.00 55 1006.8
20260509012751 23 129 8.0 9.7 0.00 0.00 0.00 54 1006.8
20260509012253 23 128 6.4 11.3 0.00 0.00 0.00 53 1005.8
20260509011254 23 174 0.0 9.7 0.00 0.00 0.00 52 1005.8
20260509010755 23 143 4.8 8.0 0.00 0.00 0.00 52 1005.8
20260509010257 23 146 0.0 8.0 0.00 0.00 0.00 52 1005.8
20260509005257 23 123 6.4 11.3 0.00 0.00 0.00 52 1005.8
20260509004751 23 123 0.0 11.3 0.00 0.00 0.00 52 1005.8
20260509003750 23 127 6.4 9.7 0.00 0.00 0.00 51 1005.8
20260509003252 23 181 6.4 11.3 0.00 0.00 0.00 51 1005.8
20260509002752 23 131 0.0 11.3 0.00 0.00 0.00 51 1005.8
20260509002253 23 218 6.4 9.7 0.00 0.00 0.00 50 1005.8
20260509000755 23 170 0.0 6.4 0.00 0.00 0.00 49 1005.8
20260508235756 23 150 6.4 11.3 0.00 0.00 0.00 50 1005.8
20260508234258 23 183 0.0 12.9 0.00 0.00 0.00 49 1006.8
20260508233800 23 134 8.0 11.3 0.00 0.00 0.00 49 1005.8
20260508232800 23 189 6.4 9.7 0.00 0.00 0.00 48 1005.8
20260508232257 23 125 4.8 11.3 0.00 0.00 0.00 47 1006.8
20260508231258 23 142 4.8 9.7 0.00 0.00 0.00 46 1006.8
20260508230759 23 208 6.4 11.3 0.00 0.00 0.00 47 1006.8
20260508225800 22 133 8.0 12.9 0.00 0.00 0.00 47 1006.8
20260508225302 23 152 4.8 16.1 0.00 0.00 0.00 46 1005.8
20260508224302 23 165 8.0 16.1 0.00 0.00 0.00 45 1005.8
20260508223804 23 132 11.3 17.7 0.00 0.00 0.00 45 1006.8
20260508223306 22 130 9.7 14.5 0.00 0.00 0.00 45 1006.8
20260508222805 23 206 9.7 16.1 0.00 0.00 0.00 45 1006.8
20260508221307 22 150 9.7 17.7 0.00 0.00 0.00 49 1006.8
20260508220804 22 214 9.7 17.7 0.00 0.00 0.00 49 1006.8
20260508215805 22 161 11.3 17.7 0.00 0.00 0.00 49 1006.8
20260508215306 22 146 11.3 19.3 0.00 0.00 0.00 48 1006.8
20260508214258 22 228 6.4 17.7 0.00 0.00 0.00 45 1006.8
20260508213746 22 205 8.0 16.1 0.00 0.00 0.00 46 1006.8
20260508212737 22 220 6.4 12.9 0.00 0.00 0.00 45 1006.8